DELTA 1 DEB, 2224

Orbit data source: Space-Track

DELTA 1 DEB, 2224 is space debris in SSO originally from a launch on Mon, 28 Feb 1966 UTC launched from the Air Force Eastern Test Range (AFETR). Debris objects in space refer to the collection of defunct objects orbiting the Earth. Examples of debris include non-operational satellites, rocket bodies, and fragments generated from explosions, collisions, or faulty payload assembly.

Loading next visibility...
DELTA 1 DEB details
Identifier
2224, 1966-016D
Orbit
SSO
Last TLE update1 day ago
Origin
Flag of USGSFC (US)
ManufacturerUnknown
MissionSpacecraft
Bus & MotorUnknown
Mass1 kg wet, 1 kg dry
Launch date (UTC)
1966-02-28 (59 years ago)
Launch vehicleUnknown
Launch site
Air Force Eastern Test Range (AFETR)
Object type
Payload
Rocket body
Debris
Shape & HBRCyl + 1 Cable, 3.5 m
Radar Cross Section3.500 m², Small (<0.1 m²)

Expand to show TLE details & history

TLE from 1 day ago
0 DELTA 1 DEB
1 02224U 66016D   25017.78605005 -.00000007  00000-0  21081-3 0  9998
2 02224 101.1176 324.7227 0137735 161.8196 226.9443 12.52149316681395
Epoch: 2025-01-17T18:51Z
Definitive object data (Epoch: 2025-01-17T18:51:54.724Z)
Latitude27.09942°
Longitude-81.44312°
Altitude1,533.017 km
Speed7.068 km/s
True Right ascension21h 15m 55s
True Declination26° 58' 26"
Sunlit
Object was in daylight at TLE epoch
Visualization TLE readout
Latitude76.84411°
Longitude162.21602°
Altitude1,417.014 km
Speed7.182 km/s
Apparent Right ascension13h 03m 48s
Apparent Declination27° 42' 17"
Sunlit
Object is in daylight
Visualization observer readout
Local Sidereal Time00:54:06
Azimuth357.68° N
Elevation-22.342°
Doppler factor1
Orbital elements
Apogee altitude1,560.887 km
Perigee altitude1,345.162 km
Semi-major axis7,831.162 km
Eccentricity0.0137735
Inclination101.1176°
RAAN324.7227°
Arg. of periapsis161.8196°
True anomaly225.80451°
Mean anomaly226.9443°
Eccentric anomaly226.37307°
Mean motion3.13187 °/min
BSTAR0.00021081
Orbital period114.95 mins
Loading maneuver chart data...
Loading historical data...
Loading historical data...
Loading historical data...
Loading historical data...
Loading historical data...
Loading historical data...
Loading historical data...
Other satellites on launch #16 in the year 1966 (1966-02-28 UTC)

DELTA 1 DEB Visibility forecast

Observer location: undefined°, undefined

Span
Click to sort rows by Start time (UTC) header in descending order
Start Az.
Max El. time (UTC)
Max El. Az.
Max El.
End time (UTC)
End Az.
11 mins2025-01-19 07:49:00.862Z46.752° ENE2025-01-19 07:54:00.862Z89.338° E21.24°2025-01-19 08:00:00.862Z141.539° SSE
13 mins2025-01-19 09:42:00.862Z9.309° NNE2025-01-19 09:48:00.862Z290.324° WNW42.973°2025-01-19 09:55:00.862Z211.156° SW
6 mins2025-01-19 11:37:00.862Z331.901° NNW2025-01-19 11:39:00.862Z315.917° NNW13.823°2025-01-19 11:43:00.862Z284.161° WNW
13 mins2025-01-19 18:48:00.862Z115.888° SE2025-01-19 18:54:00.862Z65.649° ENE29.154°2025-01-19 19:01:00.862Z2.471° NNE
15 mins2025-01-19 20:40:00.862Z182.908° SSW2025-01-19 20:47:00.862Z257.682° W40.195°2025-01-19 20:55:00.862Z335.094° NNW
|